Cahokia, IL

8:48 AM CDT on October 01, 2016 (GMT -0500)
Saint Louis Downtown

Weather History for KCPS - November, 2012

Change the Weather History Date:

Thursday, November 8, 2012

  Actual Average Record
Temperature  
Mean Temperature 40 °F -  
Max Temperature 55 °F 67 °F 81 °F (1999)
Min Temperature 26 °F 47 °F 19 °F (1951)
Degree Days  
Heating Degree Days 24    
Moisture  
Dew Point 32 °F    
Average Humidity 79    
Maximum Humidity 100    
Minimum Humidity 49    
Precipitation  
Precipitation 0.00 in - - ()
Sea Level Pressure  
Sea Level Pressure 30.18 in    
Wind  
Wind Speed 2 mph (SSE)    
Max Wind Speed 12 mph    
Max Gust Speed -    
Visibility 8 miles    
Events      
Averages and records for this station are not official NWS values.
T = Trace of Precipitation, MM = Missing Value Source: NWS Daily Summary

Daily Weather History Graph

Daily Weather History Graph

Search for Another Location

Airport or City:

Trip Planner

Search our weather history database for the weather conditions in past years. The results will help you decide how hot, cold, wet, or windy it might be!

Date:

Astronomy

Nov. 08, 2012 Rise Set
Actual Time 6:35 AM CST 4:52 PM CST
Civil Twilight 6:07 AM CST 5:20 PM CST
Nautical Twilight 5:35 AM CST 5:52 PM CST
Astronomical Twilight 5:04 AM CST 6:23 PM CST
Moon 12:34 AM CST (11/8) 1:30 PM CST (11/8)
Length of Visible Light 11h 13m
Length of Day
10h 17m
Waning Crescent, 32% of the Moon is Illuminated
Nov 8
Waning Crescent
Nov 13
New
Nov 20
First Quarter
Nov 28
Full
Dec 6
Last Quarter

Hourly Weather History & Observations

Time (CST) Temp. Windchill Dew Point Humidity Pressure Visibility Wind Dir Wind Speed Gust Speed Precip Events Conditions
12:53 AM 30.0 °F - 28.0 °F 92% 30.21 in 4.0 mi Calm Calm - N/A   Clear
1:53 AM 28.9 °F - 28.0 °F 96% 30.22 in 6.0 mi Calm Calm - N/A   Clear
2:03 AM 28.4 °F - 26.6 °F 93% 30.21 in 2.0 mi Calm Calm - N/A   Clear
2:53 AM 28.9 °F - 27.0 °F 92% 30.22 in 7.0 mi Calm Calm - N/A   Clear
3:53 AM 28.0 °F - 26.1 °F 92% 30.23 in 6.0 mi Calm Calm - N/A   Clear
4:53 AM 28.9 °F - 26.1 °F 89% 30.23 in 8.0 mi Calm Calm - N/A   Clear
5:24 AM 26.6 °F - 26.6 °F 100% 30.22 in 1.8 mi Calm Calm - N/A   Clear
5:34 AM 28.4 °F - 26.6 °F 93% 30.22 in 3.0 mi Calm Calm - N/A   Clear
5:53 AM 28.0 °F - 25.0 °F 88% 30.23 in 8.0 mi Calm Calm - N/A   Clear
6:53 AM 28.0 °F - 26.1 °F 92% 30.25 in 7.0 mi Calm Calm - N/A   Clear
7:53 AM 32.0 °F - 30.0 °F 92% 30.26 in 7.0 mi Calm Calm - N/A   Clear
8:53 AM 39.0 °F - 35.1 °F 86% 30.26 in 10.0 mi Calm Calm - N/A   Clear
10:53 AM 51.1 °F - 37.9 °F 61% 30.23 in 10.0 mi Variable 5.8 mph - N/A   Clear
11:53 AM 53.1 °F - 37.0 °F 55% 30.20 in 10.0 mi South 9.2 mph - N/A   Clear
1:53 PM 55.9 °F - 37.0 °F 49% 30.14 in 10.0 mi South 8.1 mph - N/A   Clear
2:53 PM 55.9 °F - 39.9 °F 55% 30.12 in 10.0 mi SE 11.5 mph - N/A   Clear
3:53 PM 55.9 °F - 37.9 °F 51% 30.11 in 10.0 mi SSE 11.5 mph - N/A   Clear
4:53 PM 52.0 °F - 37.9 °F 59% 30.12 in 10.0 mi SSE 5.8 mph - N/A   Clear
6:53 PM 48.0 °F - 37.9 °F 68% 30.12 in 10.0 mi SSE 8.1 mph - N/A   Clear
8:53 PM 46.0 °F 42.5 °F 37.9 °F 73% 30.11 in 10.0 mi SSE 6.9 mph - N/A   Clear
9:53 PM 45.0 °F 41.8 °F 37.9 °F 76% 30.09 in 10.0 mi SSE 5.8 mph - N/A   Clear
10:53 PM 43.0 °F 39.5 °F 37.0 °F 80% 30.09 in 10.0 mi SSE 5.8 mph - N/A   Clear
11:53 PM 43.0 °F 39.5 °F 37.0 °F 80% 30.09 in 10.0 mi SSE 5.8 mph - N/A   Clear